Vorticity
1 2 2 3 3 4 4 4 4 4 4 4 5 5 6 6 6 6 5 6 6 5 5 5 5 4 4 4 5 5 4 4 4 5 6 6 6 6 5 5 4 4 5
2 3 3 3 3 4 5 6 5 5 5 6 5 7 5 6 6 6 6 7 6 6 6 6 6 6 6 6 6 6 6 5 4 4 4 5 6 6 6 5 5 4 4
3 4 5 5 6 7 7 6 5 5 6 5 7 5 5 6 6 6 6 7 7 7 7 7 7 8 9 9 10 10 8 8 6 5 5 5 5 6 6 6 7 7 5
7 7 8 9 8 7 6 5 5 7 7 4 3 4 5 5 5 4 3 8 6 5 6 6 6 7 7 7 8 8 9 8 8 9 8 7 7 5 6 4 4 4 5
11 9 8 7 7 7 5 6 7 6 3 3 4 3 4 5 4 4 3 6 5 6 4 5 6 5 5 6 6 5 6 7 6 5 5 9 6 6 -5 -1 9 26 19
7 6 6 5 5 6 7 6 4 4 3 4 4 3 4 5 4 5 4 7 5 5 1 5 7 6 6 4 4 5 6 0 7 2 10 8 7 1 9 17 2 12 1
6 6 6 6 6 5 3 3 4 4 2 4 3 3 4 4 5 6 5 3 6 4 7 14 7 4 4 4 4 5 6 13 1 6 2 16 17 -3 5 3 14 5 4
7 6 7 5 5 4 3 3 5 5 4 5 2 2 4 3 6 7 4 6 12 12 18 16 9 7 7 6 9 12 10 8 16 7 8 17 13 25 4 14 19 6 13
2 0 -0 1 2 2 3 4 5 4 4 3 5 4 5 3 5 6 11 15 12 9 14 9 6 9 5 12 8 6 12 6 5 11 5 -0 6 1 4 21 -0 12 14
2 5 5 5 4 1 2 7 4 3 3 5 2 4 4 4 7 7 7 10 5 6 18 12 10 11 10 5 13 7 10 8 10 13 4 8 18 5 9 28 2 30 12
6 5 4 4 2 4 9 9 6 4 5 5 4 3 7 10 10 12 10 2 5 11 8 10 9 10 8 9 11 10 9 10 10 8 10 7 8 8 12 16 -14 -0 20
8 8 8 8 7 6 6 4 3 3 3 3 6 10 9 10 10 9 7 11 10 9 10 7 8 9 10 9 13 14 12 11 12 10 10 13 10 5 -7 9 18 2 4
10 11 11 11 10 9 8 7 7 7 8 10 10 9 15 8 12 12 8 10 8 7 6 8 10 13 10 12 11 7 12 14 16 14 13 10 5 14 4 14 14 7 4
4 4 5 6 7 7 9 10 9 10 9 9 7 10 12 13 11 11 8 7 7 6 9 10 13 10 12 11 10 14 15 15 17 16 16 8 4 9 11 12 10 5 5
8 13 12 13 14 15 14 12 12 13 14 13 16 17 15 11 7 5 5 7 6 8 10 13 9 10 13 11 17 12 10 12 13 12 12 10 11 14 10 -1 3 10 1
10 11 11 11 13 13 15 14 13 11 10 11 8 9 8 6 4 5 8 8 10 12 9 11 12 14 13 15 12 13 18 17 11 13 10 7 6 11 11 9 2 9 13
10 10 9 8 8 9 8 7 7 7 7 6 6 7 5 6 8 11 10 13 12 9 13 13 12 15 18 15 14 6 8 12 11 12 13 15 13 11 15 18 12 10 10
11 11 9 8 7 8 7 7 7 7 8 7 7 7 9 10 12 13 13 11 9 16 15 14 20 13 6 6 6 6 7 8 8 9 10 8 9 10 9 11 15 9 3
10 10 9 9 9 9 9 9 10 10 9 9 10 11 14 13 15 13 10 12 17 18 17 9 6 7 6 8 7 7 8 8 8 8 10 10 10 9 9 5 3 0 2
10 11 11 11 11 11 11 11 11 11 12 13 15 12 14 13 14 11 16 21 17 4 7 6 8 6 6 7 8 9 9 8 9 10 10 11 13 12 12 12 12 13 14
9 10 10 9 11 12 12 12 13 14 12 13 14 13 12 13 11 18 18 5 6 6 6 7 7 7 8 8 9 10 10 10 11 10 12 13 11 13 13 16 18 20 18
11 11 12 13 13 13 13 13 13 15 14 13 12 13 13 15 21 9 6 6 6 6 7 8 8 8 9 10 10 10 11 11 11 11 10 11 11 11 12 12 12 10 8
13 14 14 13 13 13 13 14 14 14 12 13 14 13 16 21 7 7 6 6 6 7 8 8 9 9 10 10 9 10 10 10 9 9 9 9 9 10 10 10 9 9 8
13 13 15 14 13 12 13 12 11 12 13 13 15 22 11 6 6 6 6 6 7 8 10 10 10 10 10 10 9 9 8 8 8 9 8 8 8 8 9 10 10 11 10
14 13 14 13 14 14 12 11 13 13 14 20 13 7 6 6 5 6 6 8 9 9 10 10 10 10 9 8 7 7 8 9 9 8 8 8 8 9 10 11 12 13 13
13 13 12 11 11 11 11 13 14 15 16 8 7 6 6 6 6 7 8 9 9 9 10 10 10 8 7 6 7 7 8 9 9 8 8 9 9 11 14 14 13 13 12
Height
3205 3205 3205 3205 3205 3205 3205 3205 3205 3205 3204 3204 3203 3202 3202 3201 3199 3197 3196 3195 3193 3192 3190 3188 3187 3185 3184 3182 3181 3180 3178 3177 3175 3174 3173 3172 3171 3170 3168 3168 3167 3166 3165
3202 3202 3202 3202 3203 3203 3203 3203 3203 3202 3202 3202 3201 3200 3199 3198 3197 3195 3194 3192 3190 3189 3187 3185 3184 3182 3181 3179 3178 3176 3175 3174 3172 3171 3170 3169 3168 3167 3167 3166 3165 3164 3163
3199 3199 3199 3199 3200 3199 3200 3200 3200 3200 3199 3199 3199 3198 3197 3195 3194 3192 3191 3189 3187 3185 3183 3181 3180 3178 3177 3175 3174 3174 3171 3170 3169 3168 3167 3166 3165 3163 3162 3162 3161 3160 3159
3195 3195 3195 3195 3196 3196 3197 3197 3197 3197 3197 3196 3196 3195 3194 3192 3191 3189 3188 3186 3184 3182 3180 3178 3176 3174 3173 3171 3169 3168 3168 3167 3165 3163 3162 3161 3160 3159 3158 3158 3157 3156 3155
3190 3191 3191 3192 3193 3193 3193 3194 3193 3193 3193 3193 3192 3191 3190 3189 3188 3186 3185 3183 3181 3179 3177 3175 3172 3171 3169 3167 3165 3163 3161 3162 3161 3159 3158 3156 3155 3154 3153 3152 3151 3148 3148
3187 3187 3187 3188 3189 3190 3190 3189 3189 3189 3189 3189 3188 3188 3187 3186 3184 3183 3181 3179 3177 3175 3173 3170 3168 3166 3164 3162 3160 3159 3158 3155 3154 3153 3153 3153 3151 3148 3146 3145 3144 3143 3141
3183 3183 3183 3184 3185 3186 3186 3185 3185 3185 3185 3184 3183 3183 3182 3181 3180 3179 3177 3175 3172 3170 3167 3164 3163 3161 3159 3157 3155 3153 3152 3152 3150 3144 3144 3146 3144 3143 3142 3138 3136 3135 3133
3178 3179 3180 3180 3180 3181 3181 3181 3180 3180 3180 3179 3178 3177 3176 3177 3175 3174 3171 3169 3166 3163 3161 3158 3157 3155 3153 3151 3150 3148 3147 3146 3146 3142 3137 3138 3136 3135 3134 3132 3129 3127 3125
3173 3174 3174 3174 3174 3175 3176 3175 3175 3174 3174 3173 3172 3170 3169 3168 3168 3165 3164 3163 3160 3157 3154 3153 3151 3150 3148 3145 3143 3141 3140 3140 3139 3140 3134 3132 3131 3129 3127 3125 3122 3120 3118
3168 3168 3168 3168 3169 3169 3169 3169 3168 3168 3167 3167 3166 3165 3163 3161 3159 3155 3154 3155 3153 3151 3149 3147 3145 3143 3141 3139 3136 3135 3133 3133 3132 3133 3132 3125 3123 3123 3121 3118 3116 3112 3110
3161 3161 3161 3162 3162 3162 3163 3162 3162 3161 3160 3160 3159 3157 3157 3154 3152 3149 3145 3146 3146 3144 3143 3141 3139 3137 3135 3132 3130 3128 3127 3125 3125 3125 3125 3125 3120 3118 3116 3114 3111 3109 3107
3153 3154 3154 3155 3155 3155 3155 3155 3155 3154 3153 3152 3151 3149 3148 3146 3145 3143 3141 3139 3137 3136 3136 3134 3133 3130 3128 3125 3123 3121 3119 3118 3117 3117 3117 3117 3115 3114 3110 3109 3106 3104 3102
3146 3147 3147 3147 3147 3147 3147 3147 3147 3146 3145 3144 3143 3142 3140 3139 3137 3136 3135 3133 3131 3129 3128 3127 3125 3124 3122 3119 3116 3114 3112 3110 3109 3109 3109 3107 3108 3107 3106 3104 3101 3099 3097
3139 3139 3139 3138 3138 3139 3139 3138 3138 3137 3136 3135 3134 3134 3133 3131 3130 3129 3128 3127 3124 3123 3121 3120 3119 3116 3114 3111 3110 3108 3106 3104 3103 3102 3102 3102 3100 3100 3098 3096 3094 3093 3091
3130 3130 3130 3130 3129 3129 3129 3129 3129 3129 3128 3127 3127 3126 3126 3125 3124 3122 3121 3120 3118 3115 3114 3114 3111 3109 3107 3106 3104 3102 3100 3099 3097 3096 3095 3095 3094 3093 3091 3090 3088 3087 3086
3121 3121 3121 3120 3120 3120 3121 3121 3121 3121 3120 3120 3120 3119 3118 3117 3117 3115 3114 3113 3112 3110 3107 3106 3104 3103 3102 3100 3099 3097 3095 3094 3092 3091 3090 3089 3088 3086 3085 3084 3083 3082 3080
3113 3113 3113 3113 3113 3113 3114 3113 3113 3113 3112 3113 3112 3111 3111 3110 3110 3109 3108 3107 3105 3104 3101 3100 3099 3098 3097 3095 3094 3093 3091 3089 3087 3086 3085 3084 3082 3081 3079 3078 3077 3076 3075
3105 3105 3106 3106 3106 3106 3106 3106 3106 3105 3105 3105 3104 3104 3104 3103 3103 3102 3101 3100 3099 3097 3096 3095 3094 3094 3093 3092 3090 3088 3087 3084 3082 3081 3080 3079 3077 3075 3073 3072 3071 3069 3068
3097 3097 3097 3097 3097 3097 3098 3097 3097 3097 3097 3097 3097 3097 3096 3096 3095 3095 3094 3094 3092 3092 3091 3091 3091 3090 3088 3087 3085 3084 3082 3079 3078 3076 3075 3073 3071 3069 3068 3067 3065 3063 3061
3089 3089 3089 3089 3088 3088 3088 3089 3089 3089 3089 3089 3088 3088 3088 3089 3089 3089 3089 3088 3088 3088 3088 3088 3086 3085 3084 3082 3080 3079 3077 3075 3073 3071 3069 3067 3064 3062 3061 3059 3058 3056 3053
3081 3080 3080 3079 3080 3080 3080 3080 3080 3080 3080 3081 3081 3081 3082 3082 3082 3083 3084 3084 3084 3084 3084 3083 3082 3081 3079 3077 3076 3074 3072 3070 3068 3065 3063 3061 3057 3056 3054 3052 3051 3049 3047
3072 3072 3071 3072 3071 3072 3072 3073 3073 3073 3073 3074 3075 3075 3077 3077 3077 3080 3081 3081 3080 3080 3079 3078 3077 3076 3074 3073 3071 3069 3067 3064 3062 3059 3056 3055 3052 3050 3049 3047 3045 3044 3043
3063 3064 3063 3062 3064 3064 3066 3067 3066 3068 3067 3069 3070 3070 3072 3073 3075 3076 3077 3076 3076 3075 3075 3074 3072 3071 3070 3068 3066 3064 3062 3059 3056 3054 3052 3050 3048 3046 3044 3042 3040 3038 3037
3055 3055 3055 3055 3056 3058 3059 3060 3060 3061 3062 3064 3066 3067 3068 3070 3072 3072 3072 3072 3071 3071 3070 3069 3068 3067 3066 3063 3061 3059 3057 3054 3052 3049 3047 3045 3043 3041 3039 3037 3035 3033 3030
3047 3048 3049 3048 3050 3052 3054 3055 3056 3057 3058 3060 3062 3064 3065 3067 3067 3067 3068 3068 3067 3067 3066 3065 3064 3063 3061 3059 3057 3055 3052 3049 3047 3045 3043 3040 3037 3034 3031 3029 3027 3025 3023
3039 3041 3041 3042 3044 3046 3048 3050 3051 3053 3055 3058 3060 3061 3062 3063 3063 3063 3064 3063 3063 3062 3061 3061 3060 3058 3056 3054 3052 3049 3046 3044 3042 3040 3037 3036 3031 3028 3025 3022 3019 3015 3013